Zurück zum Katalog

CZ-4 DEB

AktivSSO
NORAD 28071·DEBRIS·🇨🇳 China

Gestartet Oct 14, 1999 von Taiyuan Satellite Launch Center

Loading…

Nächste Überflüge (nächste 24 Stunden)

TLE

AlterndSource: Space-Track

Epoche: Sep 10, 2026, 01:40 UTC

1 28071U 99057NB  26253.06986206  .00000113  00000-0  52907-4 0  9995
2 28071  98.6147 184.2266 0106578   1.1194  63.3126 14.34510091258731

Verfolge CZ-4 DEB in Echtzeit mit AllMySat

Download on the App Store